Total_Precipitation_Accumulation
0.00 0.00 0.00 0.00 0.00 0.00 0.00 0.00 0.00 0.01 0.02 0.03 0.05 0.05 0.05 0.06 0.08 0.12 0.16 0.19 0.29 0.41 0.51 0.57 0.51 0.43 0.37
0.00 0.00 0.00 0.00 0.00 0.00 0.00 0.01 0.02 0.04 0.06 0.08 0.10 0.09 0.10 0.12 0.14 0.21 0.28 0.31 0.39 0.47 0.63 0.74 0.60 0.48 0.39
0.00 0.00 0.00 0.00 0.01 0.01 0.01 0.01 0.02 0.06 0.10 0.13 0.15 0.17 0.19 0.23 0.31 0.41 0.42 0.52 0.65 0.74 0.62 0.59 0.50 0.44 0.50
0.00 0.00 0.00 0.00 0.01 0.01 0.01 0.04 0.06 0.08 0.15 0.23 0.28 0.29 0.26 0.21 0.23 0.26 0.29 0.45 0.68 0.75 0.67 0.61 0.61 0.59 0.41
0.00 0.00 0.00 0.00 0.01 0.02 0.04 0.05 0.09 0.13 0.19 0.31 0.26 0.24 0.22 0.20 0.18 0.18 0.20 0.40 0.58 0.50 0.53 0.71 0.64 0.42 0.21
0.01 0.02 0.01 0.01 0.02 0.06 0.06 0.08 0.12 0.13 0.18 0.30 0.29 0.29 0.24 0.23 0.24 0.27 0.48 0.49 0.49 0.48 0.43 0.33 0.25 0.17 0.08
0.01 0.01 0.01 0.03 0.05 0.06 0.10 0.14 0.22 0.26 0.40 0.51 0.46 0.35 0.27 0.24 0.25 0.28 0.24 0.36 0.36 0.31 0.26 0.24 0.16 0.08 0.03
0.00 0.00 0.02 0.02 0.03 0.07 0.10 0.18 0.28 0.35 0.39 0.46 0.35 0.26 0.27 0.35 0.40 0.32 0.28 0.16 0.12 0.18 0.17 0.12 0.08 0.02 0.00
0.03 0.04 0.07 0.10 0.11 0.14 0.18 0.30 0.32 0.28 0.25 0.26 0.27 0.33 0.38 0.32 0.22 0.29 0.28 0.14 0.10 0.15 0.09 0.04 0.01 0.01 0.01
0.02 0.04 0.06 0.09 0.13 0.16 0.24 0.30 0.31 0.27 0.17 0.22 0.20 0.21 0.26 0.36 0.24 0.15 0.12 0.13 0.09 0.07 0.05 0.03 0.00 0.00 0.00
0.02 0.03 0.03 0.06 0.10 0.13 0.18 0.26 0.32 0.27 0.25 0.25 0.19 0.18 0.13 0.15 0.16 0.16 0.12 0.11 0.05 0.04 0.02 0.01 0.00 0.00 0.00
0.05 0.05 0.06 0.09 0.10 0.11 0.14 0.19 0.25 0.24 0.22 0.27 0.23 0.17 0.13 0.09 0.11 0.17 0.18 0.15 0.07 0.03 0.01 0.01 0.01 0.00 0.00
0.08 0.08 0.07 0.07 0.07 0.06 0.05 0.10 0.12 0.15 0.19 0.23 0.22 0.18 0.12 0.05 0.04 0.11 0.15 0.22 0.11 0.02 0.01 0.00 0.00 0.00 0.00
0.11 0.09 0.08 0.09 0.09 0.08 0.06 0.09 0.09 0.08 0.11 0.16 0.13 0.09 0.09 0.07 0.07 0.13 0.10 0.10 0.10 0.05 0.03 0.01 0.00 0.00 0.00
0.13 0.12 0.12 0.12 0.08 0.07 0.07 0.07 0.05 0.05 0.07 0.14 0.14 0.11 0.13 0.14 0.15 0.11 0.07 0.07 0.07 0.04 0.02 0.02 0.00 0.00 0.00
0.15 0.13 0.13 0.10 0.07 0.05 0.06 0.04 0.03 0.03 0.06 0.13 0.16 0.13 0.13 0.14 0.11 0.11 0.11 0.10 0.12 0.06 0.02 0.01 0.00 0.00 0.00
0.16 0.14 0.11 0.08 0.06 0.06 0.05 0.03 0.03 0.03 0.05 0.09 0.13 0.12 0.10 0.09 0.14 0.15 0.09 0.11 0.09 0.08 0.05 0.01 0.00 0.00 0.00